Vorticity
-5 -0 5 9 11 13 14 14 14 15 15 15 14 13 13 13 12 11 11 12 12 11 11 11 11 10 10 10 11 11 11 11 11 11 12 12 13 13 13 13 13 13 13 12 11 11 11 11 11 11 11 11 13 15 15 13 11 12 14 16 15 13 10 9 9 10 12 11 9
-6 -3 2 5 7 9 10 11 11 12 12 13 13 13 12 13 12 11 11 12 11 11 10 10 10 11 11 12 12 13 13 13 13 13 13 13 13 13 14 14 14 13 13 12 12 11 11 11 11 11 12 13 14 14 12 9 7 8 11 17 18 16 14 13 12 12 12 11 10
-7 -4 -0 4 6 8 9 10 10 10 11 12 12 12 12 12 12 12 12 11 11 12 12 13 13 13 13 13 14 14 14 14 14 14 13 13 13 13 14 14 14 13 13 12 12 12 12 13 13 13 13 14 15 14 11 5 3 4 8 13 16 16 15 13 12 12 13 13 12
-4 -0 4 7 9 10 10 9 10 10 11 11 11 11 11 10 11 11 12 12 13 14 15 16 15 15 15 14 14 15 15 14 14 14 13 13 13 12 12 12 12 12 12 12 13 15 16 17 17 15 14 14 15 15 12 5 -0 -0 4 11 17 18 16 13 11 11 11 12 12
3 7 9 10 10 9 9 9 9 10 10 10 11 11 11 11 12 12 13 14 15 15 16 16 16 15 14 13 13 13 13 13 13 12 12 12 12 11 11 10 10 11 13 15 17 19 20 21 19 16 13 12 14 15 15 10 2 -3 -3 5 13 17 17 14 11 10 10 11 10
5 7 8 8 8 8 8 9 9 9 9 9 10 10 10 11 12 13 13 13 13 14 14 14 14 14 13 12 12 11 11 11 11 11 11 11 11 11 10 10 11 14 16 19 21 21 22 21 19 16 13 13 14 15 15 14 8 -0 -6 -6 0 7 12 13 11 10 10 10 10
8 7 6 6 6 7 8 9 10 10 11 11 11 11 12 12 13 13 13 13 14 14 14 14 14 14 13 12 11 10 9 9 9 9 10 11 11 12 12 13 15 18 20 21 20 19 18 16 13 13 14 16 16 16 15 13 11 7 2 -4 -5 -2 3 8 10 10 10 10 10
11 9 7 7 8 10 11 13 13 14 15 15 16 16 16 17 17 17 17 16 16 16 16 17 16 16 15 14 12 10 9 9 9 10 11 12 14 15 16 18 19 20 19 17 14 11 9 7 9 14 18 19 19 18 16 14 13 12 11 8 4 2 3 6 9 11 11 11 11
8 9 11 15 18 19 20 20 20 20 21 22 22 22 22 22 22 22 21 20 20 21 21 22 22 22 21 19 17 14 13 11 12 13 14 15 17 19 20 21 20 19 16 13 9 4 0 -1 7 13 18 18 17 16 15 14 14 15 16 15 13 11 10 9 11 12 12 11 11
11 13 16 21 23 23 23 22 22 22 23 25 26 26 25 24 24 23 23 24 24 24 25 26 27 27 27 26 23 21 18 16 16 17 18 19 20 21 23 23 21 18 14 10 4 -2 -6 -3 6 12 14 14 14 14 14 13 15 16 17 17 16 14 13 12 12 12 12 12 11
8 6 6 8 10 10 10 10 10 11 12 15 17 18 18 18 18 18 19 19 18 19 20 22 24 25 25 26 25 23 22 21 20 19 19 19 20 20 21 22 21 19 16 10 1 -5 -6 -1 7 12 14 15 18 20 21 20 18 18 18 18 18 17 16 15 14 13 13 12 11
9 6 2 0 -1 -1 -2 -2 -3 -2 -2 -1 1 3 5 7 9 12 13 13 11 10 9 9 11 13 15 18 19 20 21 21 19 18 18 18 18 18 18 19 20 18 16 14 4 -3 -6 -1 6 11 14 13 13 17 22 25 22 20 19 19 19 19 18 18 16 15 14 13 12
16 14 11 7 3 -0 -3 -4 -3 -3 -3 -4 -5 -4 -3 -1 2 6 10 12 12 10 8 6 6 8 9 11 12 13 14 15 15 15 16 16 17 18 18 19 19 16 12 11 3 -4 -8 -4 4 9 10 7 7 10 13 17 19 20 19 18 18 17 16 14 13 12 12 13 14
19 19 18 16 13 10 7 4 4 4 3 3 1 -1 -3 -3 -1 1 4 6 9 10 10 9 9 9 9 10 10 10 9 9 10 11 13 15 16 17 18 19 19 17 14 9 -0 -7 -9 -3 4 7 7 4 5 7 11 15 17 18 18 16 14 12 9 6 4 3 4 8 14
16 16 17 17 16 15 14 12 10 9 8 8 7 5 2 0 0 1 2 3 3 4 4 3 3 3 4 7 9 9 8 6 6 7 9 11 13 14 16 17 17 16 14 9 3 -1 -0 5 8 8 5 3 3 5 8 12 15 17 17 16 13 10 6 2 -2 -4 -4 2 8
14 14 15 17 17 17 16 14 13 12 11 12 11 10 8 6 5 5 5 5 4 4 4 3 1 0 1 3 7 9 9 7 6 5 6 7 8 9 11 13 15 15 14 13 10 10 10 12 9 6 3 2 2 3 4 6 9 12 14 14 13 11 8 5 2 -0 -1 1 5
11 13 15 17 18 19 19 18 16 15 14 13 12 11 9 7 7 7 8 8 7 7 7 6 5 3 3 3 6 8 10 9 7 5 4 3 4 5 7 10 13 15 16 16 15 15 14 11 8 6 4 5 5 6 7 7 8 9 10 11 11 11 11 10 9 7 7 6 6
8 10 11 14 16 18 20 20 20 19 17 15 13 10 8 8 8 10 11 12 12 12 12 11 9 7 6 5 6 7 9 9 7 5 2 1 0 2 5 9 12 13 13 13 13 13 12 12 11 10 10 11 11 11 11 11 11 12 11 11 11 11 11 10 10 9 8 7 7
9 9 9 10 12 13 16 18 20 21 22 21 19 16 15 14 15 15 16 18 19 19 19 18 15 12 10 7 6 6 7 7 6 4 3 1 2 4 6 9 10 10 9 9 10 11 12 12 13 13 14 14 14 13 13 12 12 13 13 12 11 10 9 8 7 6 5 4 5
12 11 11 10 10 11 12 13 16 19 21 22 21 21 19 19 18 17 17 17 19 21 22 23 22 20 17 14 11 10 9 9 9 9 9 9 10 11 11 10 10 9 9 9 10 10 11 11 12 12 12 12 11 11 11 10 11 11 11 11 10 8 7 7 6 5 4 3 2
14 14 13 13 12 12 11 11 12 13 13 14 14 14 14 13 12 12 11 12 13 14 17 20 22 24 24 23 22 20 18 17 18 18 18 19 19 18 17 15 14 14 13 13 13 13 13 13 13 13 13 12 11 10 9 8 8 9 10 10 10 9 8 7 6 5 4 3 3
14 14 14 14 14 14 13 13 12 12 11 11 10 10 10 11 10 10 10 10 10 11 12 13 16 19 21 24 25 26 25 25 24 23 22 22 22 21 21 20 20 19 19 20 20 21 21 20 19 18 17 16 15 13 12 11 11 10 10 11 11 11 10 9 8 8 7 7 6
13 14 14 14 14 14 14 14 13 13 13 13 12 12 12 12 12 12 12 12 12 11 11 11 12 13 14 16 18 19 21 22 22 22 22 21 20 20 19 19 19 19 19 20 22 24 25 26 26 25 23 22 20 20 19 19 19 18 17 16 15 14 13 12 12 12 12 12 12
13 13 12 12 12 12 12 12 12 13 13 13 13 13 12 12 12 12 12 13 12 12 12 12 12 12 12 12 13 13 14 14 15 16 16 16 16 16 16 15 14 14 14 14 15 16 17 19 19 19 19 18 18 19 20 21 22 22 22 22 21 20 19 17 18 18 19 20 20
12 12 12 12 12 12 12 11 11 11 12 12 12 12 12 12 12 12 12 12 12 12 12 12 12 12 13 13 13 12 12 12 13 13 13 13 13 13 14 13 12 12 12 11 11 11 11 11 11 12 12 12 12 12 13 14 16 17 19 21 22 22 22 20 19 18 18 19 20
11 11 11 11 11 11 11 10 10 11 11 11 11 11 11 11 11 11 11 11 11 11 11 11 11 11 11 12 12 12 12 12 12 12 12 12 12 12 12 12 12 12 12 12 11 11 11 11 11 11 11 11 11 12 12 12 13 13 14 14 14 14 14 14 13 13 12 12 13
10 10 10 10 10 10 10 10 10 10 10 10 10 10 10 10 10 10 10 10 10 10 10 10 10 10 10 10 10 10 10 10 10 10 10 10 10 10 10 10 11 11 11 11 11 11 11 11 11 11 12 12 12 12 13 13 13 13 13 13 13 13 13 13 14 14 14 14 13
9 9 9 9 9 9 9 9 9 9 9 9 9 9 9 9 9 9 9 9 9 9 9 8 8 9 9 9 9 9 9 9 9 9 9 9 9 9 10 10 10 10 10 10 10 10 10 10 10 10 10 10 11 11 11 11 12 12 12 12 13 13 13 14 14 14 15 15 16
8 8 9 8 8 8 8 8 8 8 8 9 9 9 9 9 8 8 8 8 8 8 8 8 8 8 9 9 8 9 9 9 9 9 9 9 10 10 10 10 11 11 11 11 11 10 10 10 10 10 10 10 10 10 10 11 11 11 11 12 12 13 13 14 14 15 15 16 16
8 8 8 8 8 8 8 8 8 8 9 9 9 9 9 8 8 8 8 8 8 8 8 8 8 8 9 9 8 9 9 9 9 10 10 10 11 11 11 12 12 12 12 12 12 12 11 11 12 12 12 12 12 12 12 12 12 12 12 13 13 13 14 14 14 14 15 15 16
8 8 8 8 8 8 8 8 8 8 8 8 8 8 8 8 8 8 8 8 8 8 8 8 8 9 9 8 9 9 9 9 9 10 10 10 11 11 11 12 12 12 12 12 12 12 12 12 12 13 13 13 13 13 14 14 14 14 14 14 14 14 15 15 15 15 15 15 15
8 8 8 8 8 8 8 8 8 8 8 8 8 8 8 7 8 8 8 8 8 8 8 8 8 9 8 8 9 9 9 9 9 10 10 10 9 9 9 10 10 9 9 9 10 10 10 10 11 11 11 12 12 12 12 12 13 13 14 14 14 14 14 14 14 15 15 15 16
8 8 8 8 8 8 8 8 8 8 8 8 8 8 8 8 8 8 8 8 8 8 8 8 9 9 9 8 8 9 9 9 9 9 9 9 8 8 8 8 8 7 7 7 8 8 8 8 8 8 8 9 9 9 9 9 10 10 10 11 11 11 11 11 12 12 12 12 13
8 8 8 8 8 8 8 8 8 8 8 8 8 8 8 8 8 8 8 8 8 8 8 9 9 9 9 8 8 8 8 8 8 8 8 8 8 8 8 7 7 7 7 8 8 8 7 7 6 6 6 7 7 7 7 7 8 8 8 8 8 8 8 8 9 9 9 9 9
9 9 8 8 8 9 8 8 8 8 8 8 8 8 8 8 8 8 8 8 8 8 8 8 8 8 8 8 8 8 7 7 8 8 8 8 8 8 8 8 8 9 9 10 10 10 10 9 8 8 8 8 8 8 8 8 8 8 8 8 8 8 8 8 8 7 7 7 7
9 9 9 9 9 9 9 8 8 8 8 8 8 8 8 8 8 8 8 7 7 7 8 8 8 8 8 8 8 8 8 8 8 8 8 9 9 10 10 10 10 11 12 13 13 13 13 13 12 12 12 12 12 12 12 12 11 11 11 11 11 11 11 11 11 11 10 10 10
9 9 9 9 9 9 9 8 8 8 8 8 8 8 7 7 7 7 7 7 7 7 7 7 8 8 8 8 8 9 9 10 10 10 11 11 12 12 12 12 13 13 14 13 13 13 13 14 14 14 13 13 13 14 14 14 14 14 15 15 15 15 15 15 16 16 16 16 16
9 9 9 9 9 8 8 8 8 8 7 7 7 7 7 7 7 7 7 7 7 8 8 8 8 9 10 10 10 11 11 12 12 13 13 13 13 13 13 13 12 12 12 12 11 11 11 11 11 11 12 12 12 12 12 12 13 13 14 14 14 14 14 15 15 15 16 16 17
9 9 9 8 8 8 8 8 7 7 7 7 7 7 7 7 7 8 8 8 8 9 9 10 10 11 12 12 12 12 12 13 13 13 12 12 12 12 11 11 10 10 10 10 9 9 9 9 9 9 10 10 10 10 10 10 10 10 11 11 10 10 10 10 10 11 11 11 12
9 9 8 8 8 8 8 7 7 7 7 7 7 7 7 7 8 8 9 9 10 10 11 11 12 12 12 13 12 12 11 11 11 11 11 10 10 9 9 9 8 8 8 9 8 8 8 8 8 8 9 9 9 9 9 9 9 9 8 8 8 7 7 8 8 8 8 8 8
9 8 8 8 8 8 7 7 7 7 7 7 8 8 8 8 9 9 10 10 11 11 12 12 12 12 12 12 11 10 10 10 10 9 9 9 9 8 8 8 8 8 8 8 8 8 8 8 8 8 8 8 8 8 8 8 9 8 8 7 7 7 7 7 7 7 8 8 7
Height
3020 3020 3020 3020 3020 3021 3021 3021 3022 3022 3023 3023 3023 3024 3024 3024 3025 3025 3025 3026 3026 3026 3027 3027 3028 3028 3029 3029 3030 3030 3031 3032 3032 3032 3033 3033 3033 3033 3033 3033 3034 3034 3034 3034 3035 3035 3035 3036 3037 3037 3038 3039 3039 3040 3041 3043 3044 3045 3045 3045 3045 3046 3046 3047 3048 3048 3049 3050 3051
3020 3020 3020 3020 3020 3020 3020 3020 3021 3021 3021 3022 3022 3023 3023 3023 3024 3024 3024 3024 3024 3025 3025 3025 3025 3026 3026 3027 3028 3028 3029 3029 3029 3030 3030 3030 3030 3030 3031 3031 3031 3032 3032 3032 3033 3033 3034 3034 3034 3035 3035 3036 3037 3037 3039 3040 3041 3042 3042 3043 3043 3043 3043 3044 3044 3044 3045 3046 3047
3019 3019 3019 3019 3019 3019 3019 3020 3020 3020 3020 3021 3021 3021 3022 3022 3022 3022 3022 3023 3023 3023 3023 3023 3024 3024 3024 3025 3025 3026 3026 3026 3027 3027 3028 3028 3028 3028 3028 3029 3029 3029 3030 3030 3030 3031 3031 3032 3032 3033 3033 3034 3034 3035 3035 3037 3038 3039 3039 3040 3040 3040 3041 3041 3041 3042 3043 3044 3044
3019 3019 3019 3019 3019 3019 3019 3019 3019 3019 3020 3020 3020 3020 3020 3020 3020 3021 3021 3021 3021 3021 3021 3021 3022 3022 3023 3023 3024 3024 3024 3024 3024 3025 3025 3025 3025 3026 3026 3027 3027 3027 3028 3028 3029 3029 3029 3029 3030 3030 3031 3032 3032 3032 3033 3034 3034 3036 3037 3037 3037 3037 3038 3038 3039 3039 3040 3041 3041
3018 3018 3018 3018 3018 3018 3018 3019 3019 3019 3019 3019 3019 3019 3019 3019 3019 3019 3019 3019 3020 3020 3020 3020 3020 3020 3021 3021 3022 3022 3022 3022 3023 3023 3023 3023 3024 3024 3024 3024 3025 3025 3026 3026 3027 3027 3027 3028 3028 3029 3029 3029 3030 3030 3030 3031 3032 3033 3034 3034 3035 3035 3035 3035 3035 3036 3037 3038 3038
3017 3017 3017 3018 3018 3018 3018 3018 3018 3018 3018 3018 3018 3018 3018 3018 3018 3018 3018 3018 3018 3018 3018 3018 3018 3019 3019 3019 3020 3020 3020 3020 3021 3021 3021 3021 3022 3022 3022 3023 3023 3024 3024 3024 3025 3025 3025 3026 3027 3027 3027 3028 3028 3028 3028 3029 3029 3029 3030 3031 3032 3033 3033 3033 3033 3033 3034 3035 3035
3017 3017 3016 3017 3017 3017 3017 3017 3017 3017 3017 3016 3016 3016 3016 3016 3016 3016 3016 3016 3016 3016 3016 3016 3016 3017 3017 3018 3018 3018 3019 3019 3019 3019 3019 3019 3020 3020 3021 3021 3021 3022 3022 3023 3023 3024 3024 3025 3025 3026 3026 3026 3026 3026 3026 3027 3027 3027 3027 3027 3028 3029 3030 3030 3030 3030 3031 3032 3032
3016 3016 3015 3015 3015 3015 3015 3015 3015 3015 3015 3015 3015 3015 3015 3015 3015 3015 3015 3014 3014 3014 3014 3014 3015 3015 3015 3016 3016 3017 3017 3017 3017 3017 3018 3018 3018 3019 3019 3019 3020 3020 3020 3021 3022 3022 3023 3024 3024 3024 3024 3024 3024 3024 3024 3025 3025 3024 3024 3025 3025 3026 3027 3027 3027 3028 3028 3029 3029
3015 3015 3015 3015 3015 3014 3014 3014 3014 3014 3014 3014 3014 3014 3014 3014 3014 3014 3013 3013 3013 3013 3013 3013 3013 3013 3014 3014 3014 3015 3015 3015 3016 3016 3016 3016 3017 3017 3017 3018 3018 3018 3019 3019 3020 3021 3021 3022 3022 3022 3022 3022 3022 3022 3023 3023 3022 3022 3022 3023 3024 3024 3024 3024 3025 3025 3026 3026 3026
3014 3014 3014 3014 3014 3014 3014 3014 3013 3014 3014 3014 3014 3014 3013 3013 3013 3013 3013 3012 3012 3012 3012 3012 3012 3012 3012 3013 3013 3014 3014 3014 3014 3014 3014 3015 3015 3015 3015 3016 3016 3017 3017 3018 3019 3019 3019 3020 3020 3020 3020 3020 3020 3020 3020 3020 3020 3020 3020 3021 3021 3022 3022 3023 3023 3023 3023 3023 3024
3014 3014 3014 3014 3014 3013 3013 3013 3013 3013 3013 3013 3013 3013 3013 3013 3013 3012 3012 3012 3011 3011 3011 3011 3011 3011 3011 3011 3012 3012 3012 3012 3013 3013 3013 3013 3014 3014 3014 3014 3015 3015 3016 3017 3017 3018 3018 3019 3019 3019 3019 3019 3019 3019 3018 3018 3018 3018 3018 3019 3019 3019 3020 3020 3020 3020 3020 3020 3021
3013 3013 3013 3013 3013 3013 3013 3013 3012 3012 3012 3012 3012 3013 3013 3013 3012 3012 3011 3011 3011 3011 3010 3010 3010 3010 3010 3010 3010 3010 3011 3011 3011 3011 3011 3012 3012 3012 3013 3013 3014 3014 3015 3016 3016 3017 3017 3017 3017 3017 3017 3017 3017 3016 3016 3016 3016 3016 3017 3017 3017 3018 3018 3018 3018 3018 3018 3018 3019
3013 3013 3013 3013 3013 3013 3012 3012 3012 3012 3011 3011 3011 3012 3012 3012 3012 3011 3011 3011 3010 3010 3010 3009 3009 3009 3009 3009 3009 3009 3009 3009 3009 3010 3010 3010 3011 3011 3012 3012 3013 3014 3014 3015 3015 3015 3016 3016 3016 3015 3015 3015 3014 3014 3014 3014 3014 3014 3014 3015 3015 3015 3016 3016 3016 3016 3016 3016 3017
3012 3012 3012 3012 3012 3012 3011 3011 3011 3011 3011 3011 3011 3011 3010 3010 3010 3010 3010 3010 3009 3009 3009 3009 3008 3008 3008 3008 3008 3008 3008 3008 3009 3009 3009 3009 3009 3010 3010 3011 3012 3013 3013 3014 3014 3014 3014 3014 3014 3014 3013 3013 3013 3013 3013 3012 3012 3012 3012 3012 3012 3013 3013 3013 3014 3014 3014 3014 3014
3011 3011 3011 3011 3010 3010 3010 3010 3010 3010 3010 3010 3010 3010 3009 3009 3009 3009 3009 3009 3008 3008 3008 3008 3008 3007 3007 3007 3007 3007 3007 3007 3007 3008 3008 3008 3009 3009 3009 3010 3011 3011 3012 3012 3012 3012 3012 3012 3012 3012 3011 3011 3011 3011 3010 3010 3010 3010 3010 3010 3010 3010 3010 3011 3011 3011 3011 3011 3010
3011 3011 3010 3010 3010 3010 3009 3009 3009 3009 3009 3009 3009 3009 3009 3009 3009 3008 3008 3008 3008 3007 3007 3006 3006 3006 3006 3006 3006 3006 3006 3007 3007 3007 3007 3007 3008 3008 3008 3009 3009 3010 3010 3010 3010 3010 3010 3010 3010 3010 3009 3009 3009 3009 3009 3008 3008 3008 3008 3008 3008 3008 3008 3009 3009 3009 3009 3008 3008
3011 3011 3010 3010 3010 3010 3010 3009 3009 3009 3009 3009 3009 3009 3009 3009 3008 3008 3008 3007 3007 3007 3006 3006 3005 3005 3005 3005 3005 3005 3006 3006 3006 3006 3006 3006 3007 3007 3007 3008 3008 3008 3008 3008 3008 3008 3008 3008 3008 3008 3007 3007 3007 3006 3006 3006 3006 3006 3005 3005 3005 3006 3006 3006 3006 3006 3006 3006 3005
3012 3011 3011 3010 3010 3010 3010 3009 3009 3009 3009 3009 3009 3009 3009 3008 3008 3008 3007 3007 3006 3006 3006 3006 3005 3005 3005 3004 3004 3004 3005 3005 3005 3005 3005 3005 3006 3006 3006 3006 3006 3006 3006 3006 3006 3005 3005 3005 3005 3005 3005 3004 3004 3004 3004 3004 3003 3003 3003 3003 3003 3003 3003 3003 3003 3003 3003 3003 3003
3012 3011 3011 3011 3010 3010 3010 3009 3009 3009 3009 3009 3008 3008 3008 3008 3007 3007 3007 3006 3006 3005 3005 3005 3005 3004 3004 3004 3004 3004 3004 3004 3004 3004 3004 3004 3004 3004 3004 3004 3004 3004 3004 3004 3003 3003 3003 3003 3002 3002 3002 3002 3001 3001 3001 3001 3001 3000 3000 3000 3000 3000 3000 3000 3000 3000 3000 3000 2999
3012 3011 3011 3011 3010 3010 3009 3009 3009 3009 3009 3008 3008 3008 3007 3007 3007 3007 3006 3006 3005 3005 3004 3004 3004 3004 3004 3003 3003 3003 3003 3003 3003 3003 3003 3003 3003 3003 3003 3003 3002 3002 3002 3002 3001 3001 3001 3000 3000 3000 2999 2999 2999 2999 2999 2998 2998 2998 2998 2998 2998 2998 2997 2997 2997 2997 2997 2997 2996
3012 3011 3011 3011 3010 3010 3009 3009 3009 3009 3008 3008 3008 3007 3007 3007 3006 3006 3006 3005 3004 3004 3004 3004 3003 3003 3003 3003 3003 3003 3003 3003 3003 3003 3002 3002 3002 3002 3001 3001 3001 3001 3000 3000 3000 3000 2999 2999 2999 2998 2998 2998 2997 2997 2997 2996 2996 2996 2996 2995 2995 2995 2995 2995 2994 2994 2994 2994 2994
3012 3011 3011 3010 3010 3010 3009 3009 3009 3009 3008 3008 3008 3007 3007 3006 3006 3005 3005 3004 3004 3004 3003 3003 3003 3003 3002 3002 3002 3002 3002 3002 3002 3002 3002 3002 3001 3001 3001 3000 3000 2999 2999 2999 2999 2998 2998 2998 2997 2997 2997 2996 2996 2995 2995 2995 2994 2994 2994 2993 2993 2993 2993 2992 2992 2992 2991 2991 2991
3012 3011 3011 3010 3010 3009 3009 3009 3009 3008 3008 3008 3007 3007 3006 3005 3005 3004 3004 3004 3004 3003 3003 3003 3003 3002 3002 3002 3002 3002 3002 3002 3001 3001 3001 3001 3000 3000 3000 2999 2999 2999 2998 2998 2997 2997 2996 2996 2996 2995 2995 2994 2994 2994 2993 2993 2993 2992 2992 2991 2991 2990 2990 2990 2989 2989 2989 2989 2988
3011 3011 3010 3010 3009 3009 3009 3008 3008 3008 3007 3007 3006 3006 3005 3005 3004 3004 3004 3003 3003 3003 3002 3002 3002 3002 3002 3001 3001 3001 3001 3001 3000 3000 3000 2999 2999 2999 2999 2998 2998 2997 2997 2996 2996 2995 2995 2994 2994 2994 2993 2993 2993 2992 2992 2991 2991 2990 2989 2989 2988 2988 2987 2987 2986 2986 2986 2986 2985
3011 3011 3010 3009 3009 3009 3008 3008 3008 3007 3007 3006 3006 3006 3005 3005 3004 3004 3004 3003 3003 3002 3002 3002 3001 3001 3001 3001 3000 3000 3000 3000 2999 2999 2999 2999 2998 2998 2997 2997 2996 2996 2995 2995 2994 2994 2993 2993 2993 2992 2992 2991 2991 2990 2990 2989 2989 2989 2988 2987 2986 2986 2985 2985 2984 2984 2984 2983 2982
3011 3010 3010 3009 3009 3009 3008 3008 3008 3007 3007 3006 3006 3006 3005 3005 3004 3004 3004 3003 3003 3002 3002 3001 3001 3001 3000 3000 3000 2999 2999 2999 2999 2999 2998 2998 2997 2997 2996 2996 2995 2994 2994 2994 2993 2993 2992 2992 2991 2991 2990 2989 2989 2989 2988 2988 2987 2986 2986 2985 2984 2984 2983 2982 2981 2981 2980 2979 2979
3011 3010 3010 3010 3009 3009 3009 3008 3008 3007 3007 3006 3006 3006 3005 3005 3004 3004 3004 3003 3003 3002 3002 3001 3001 3000 3000 3000 2999 2999 2999 2999 2998 2998 2998 2997 2997 2996 2996 2995 2994 2994 2993 2993 2992 2992 2991 2991 2990 2989 2989 2988 2988 2987 2986 2986 2985 2984 2984 2983 2982 2981 2980 2979 2979 2978 2977 2976 2975
3011 3010 3010 3010 3009 3009 3009 3008 3008 3007 3007 3007 3006 3006 3005 3005 3004 3004 3004 3003 3003 3002 3002 3001 3001 3000 3000 3000 2999 2999 2999 2998 2998 2997 2997 2997 2996 2996 2995 2994 2994 2994 2993 2992 2992 2991 2990 2990 2989 2989 2988 2987 2986 2985 2985 2984 2983 2982 2981 2981 2980 2979 2979 2978 2977 2976 2975 2974 2973
3011 3010 3010 3010 3009 3009 3009 3008 3008 3007 3007 3007 3006 3006 3005 3005 3004 3004 3004 3003 3003 3002 3002 3001 3001 3000 3000 2999 2999 2999 2998 2998 2997 2997 2997 2996 2996 2995 2995 2994 2994 2993 2992 2992 2991 2990 2989 2989 2988 2987 2987 2986 2985 2984 2983 2982 2982 2981 2980 2979 2979 2978 2977 2976 2975 2974 2974 2973 2972
3011 3010 3010 3009 3009 3009 3008 3008 3008 3007 3007 3006 3006 3006 3005 3005 3004 3004 3003 3003 3002 3002 3001 3001 3000 3000 2999 2999 2998 2998 2998 2997 2997 2996 2996 2995 2995 2994 2994 2993 2993 2992 2992 2991 2990 2989 2988 2987 2987 2986 2985 2985 2984 2983 2982 2981 2980 2980 2979 2978 2977 2976 2975 2974 2974 2973 2972 2971 2970
3011 3010 3010 3009 3009 3009 3008 3008 3008 3007 3007 3006 3006 3005 3005 3004 3004 3003 3003 3002 3002 3001 3001 3000 3000 2999 2999 2998 2998 2997 2997 2996 2996 2995 2994 2994 2994 2993 2993 2992 2992 2991 2991 2990 2989 2988 2987 2986 2985 2985 2984 2983 2983 2982 2981 2980 2979 2978 2977 2976 2975 2974 2974 2973 2972 2971 2970 2969 2968
3011 3010 3010 3009 3009 3009 3008 3008 3008 3007 3007 3006 3006 3005 3004 3004 3004 3003 3003 3002 3002 3001 3001 3000 2999 2999 2998 2998 2997 2996 2996 2995 2995 2994 2994 2993 2993 2992 2992 2991 2990 2990 2989 2989 2988 2988 2987 2985 2984 2983 2983 2982 2981 2980 2979 2978 2977 2976 2975 2974 2973 2972 2971 2970 2969 2968 2967 2966 2965
3011 3011 3010 3010 3009 3009 3009 3008 3008 3007 3007 3006 3006 3005 3004 3004 3004 3003 3003 3002 3002 3001 3000 3000 2999 2999 2998 2998 2997 2996 2996 2995 2994 2994 2993 2993 2992 2991 2991 2990 2989 2989 2988 2988 2987 2986 2986 2985 2984 2982 2981 2980 2979 2978 2977 2976 2975 2974 2973 2972 2971 2970 2969 2968 2966 2965 2964 2963 2962
3012 3011 3011 3010 3010 3009 3009 3009 3008 3008 3007 3006 3006 3005 3005 3004 3004 3003 3003 3002 3002 3001 3000 3000 2999 2999 2998 2998 2997 2996 2995 2995 2994 2993 2993 2992 2991 2991 2990 2989 2988 2987 2987 2986 2985 2984 2984 2983 2982 2981 2980 2979 2977 2976 2975 2974 2973 2972 2971 2970 2969 2967 2966 2965 2964 2963 2961 2960 2959
3012 3012 3011 3011 3010 3010 3009 3009 3009 3008 3007 3007 3006 3005 3005 3004 3004 3003 3003 3002 3001 3001 3000 3000 2999 2999 2998 2997 2996 2996 2995 2994 2993 2993 2992 2991 2990 2990 2989 2988 2987 2986 2985 2984 2983 2983 2982 2981 2980 2979 2978 2977 2975 2974 2974 2973 2971 2970 2969 2968 2966 2965 2964 2963 2961 2960 2959 2958 2956
3012 3012 3011 3011 3010 3010 3009 3009 3009 3008 3007 3007 3006 3005 3005 3004 3004 3003 3002 3002 3001 3000 3000 2999 2999 2998 2997 2997 2996 2995 2994 2994 2993 2992 2991 2991 2990 2989 2988 2987 2986 2985 2984 2983 2982 2981 2980 2979 2979 2977 2976 2975 2974 2973 2972 2971 2970 2969 2968 2966 2965 2964 2962 2961 2959 2958 2957 2956 2954
3012 3012 3011 3011 3010 3010 3009 3009 3009 3008 3007 3007 3006 3005 3004 3004 3003 3003 3002 3001 3000 3000 2999 2999 2998 2998 2997 2996 2996 2995 2994 2994 2993 2992 2991 2990 2989 2988 2987 2986 2985 2984 2983 2982 2981 2980 2979 2978 2977 2976 2975 2974 2973 2972 2971 2969 2969 2967 2966 2965 2964 2962 2961 2959 2958 2957 2956 2954 2953
3012 3012 3011 3011 3010 3010 3009 3009 3008 3008 3007 3006 3005 3005 3004 3004 3003 3002 3001 3001 3000 2999 2999 2999 2998 2997 2997 2996 2995 2995 2994 2993 2992 2991 2990 2989 2988 2987 2986 2985 2984 2983 2981 2980 2979 2978 2977 2976 2975 2974 2973 2972 2971 2970 2969 2968 2967 2966 2964 2963 2962 2961 2959 2958 2957 2956 2954 2953 2952
3012 3012 3011 3011 3010 3009 3009 3008 3008 3007 3006 3006 3005 3004 3004 3004 3003 3002 3002 3001 3000 3000 2999 2999 2998 2997 2997 2996 2995 2994 2993 2992 2991 2990 2989 2988 2987 2986 2984 2983 2982 2981 2979 2979 2977 2976 2975 2974 2973 2972 2971 2970 2969 2968 2967 2966 2965 2964 2963 2962 2960 2959 2958 2957 2955 2954 2953 2952 2950
3012 3012 3011 3010 3010 3009 3009 3008 3007 3007 3006 3006 3005 3004 3004 3004 3003 3003 3002 3001 3001 3000 2999 2998 2997 2997 2996 2995 2994 2993 2991 2990 2989 2988 2987 2986 2985 2984 2982 2981 2980 2979 2978 2977 2976 2975 2974 2973 2972 2971 2970 2969 2968 2967 2966 2965 2964 2963 2962 2960 2959 2958 2957 2955 2954 2953 2951 2950 2949
3012 3012 3011 3010 3010 3009 3009 3008 3007 3007 3006 3006 3005 3004 3004 3004 3003 3003 3002 3001 3000 2999 2999 2998 2997 2995 2994 2994 2992 2991 2990 2989 2987 2986 2985 2984 2983 2982 2981 2980 2979 2978 2977 2976 2975 2974 2973 2972 2970 2969 2969 2968 2967 2966 2965 2964 2963 2962 2960 2959 2958 2957 2955 2954 2953 2951 2950 2949 2947